UAE4PV OMDB-LIMC

Flight info

Callsign UAE4PV
Flight time N/A
Altitude 32000
Route KUTLI L519 ATUDO M318 GOLGU M550 RIBOT DCT MIGMA DCT MEVDO DCT ITRUX Y511 PMA Z712 WEJ L677 CVO L617 TANSA UL613 KOR DCT DIMIS DCT VAKSU DCT SPL DCT ZDA DCT PUL DCT LABIN DCT BASOG DCT VIC/N0424F180 L615 PEXUG
Aircraft B77W/H-SDE2E3GHIJ1J3J4J5M1P2RWXYZ/LB1D1

Departure

Time 2026-05-06 08:25
Airport Dubai International Airport (OMDB)

Arrival

Time N/A
Airport Milan Malpensa International Airport (LIMC)
Time Latitude Longitude Altitude Speed Heading
2026-05-06 08:01 25.25284 55.35574 26 ft 0 kts 211°
2026-05-06 08:13 25.25298 55.35583 31 ft 4 kts 211°
2026-05-06 08:14 25.25321 55.35599 29 ft 4 kts 211°
2026-05-06 08:14 25.25340 55.35612 31 ft 4 kts 206°
2026-05-06 08:14 25.25364 55.35619 31 ft 4 kts 167°
2026-05-06 08:14 25.25385 55.35605 31 ft 4 kts 123°
2026-05-06 08:15 25.25399 55.35581 31 ft 4 kts 122°
2026-05-06 08:15 25.25410 55.35561 31 ft 0 kts 122°
2026-05-06 08:18 25.25410 55.35562 31 ft 1 kts 122°
2026-05-06 08:19 25.25385 55.35605 31 ft 14 kts 122°
2026-05-06 08:19 25.25308 55.35743 30 ft 27 kts 122°
2026-05-06 08:19 25.25210 55.35916 31 ft 27 kts 122°
2026-05-06 08:19 25.25113 55.36089 29 ft 27 kts 122°
2026-05-06 08:20 25.25015 55.36262 29 ft 27 kts 122°
2026-05-06 08:20 25.24919 55.36433 29 ft 27 kts 122°
2026-05-06 08:20 25.24821 55.36610 28 ft 27 kts 118°
2026-05-06 08:20 25.24767 55.36804 30 ft 27 kts 107°
2026-05-06 08:21 25.24678 55.36982 30 ft 27 kts 122°
2026-05-06 08:21 25.24580 55.37155 30 ft 27 kts 122°
2026-05-06 08:21 25.24483 55.37328 29 ft 27 kts 122°
2026-05-06 08:21 25.24386 55.37500 29 ft 25 kts 122°
2026-05-06 08:22 25.24313 55.37629 29 ft 17 kts 122°
2026-05-06 08:22 25.24260 55.37724 30 ft 11 kts 122°
2026-05-06 08:22 25.24276 55.37782 28 ft 10 kts 32°
2026-05-06 08:22 25.24358 55.37842 27 ft 19 kts 34°
2026-05-06 08:23 25.24478 55.37933 29 ft 21 kts 34°
2026-05-06 08:23 25.24600 55.38025 28 ft 21 kts 33°
2026-05-06 08:23 25.24721 55.38107 30 ft 14 kts 31°
2026-05-06 08:23 25.24768 55.38095 31 ft 8 kts 303°
2026-05-06 08:24 25.24800 55.38037 30 ft 16 kts 301°
2026-05-06 08:24 25.24941 55.37782 30 ft 72 kts 302°
2026-05-06 08:24 25.25332 55.37078 30 ft 141 kts 301°
2026-05-06 08:24 25.25952 55.35961 29 ft 198 kts 301°
2026-05-06 08:25 25.26722 55.34580 325 ft 211 kts 300°
2026-05-06 08:25 25.27471 55.33221 955 ft 207 kts 300°
2026-05-06 08:25 25.28227 55.31857 1493 ft 210 kts 300°
2026-05-06 08:25 25.28988 55.30461 1972 ft 213 kts 292°
2026-05-06 08:26 25.29209 55.28846 2268 ft 217 kts 253°
2026-05-06 08:26 25.28656 55.27316 2777 ft 212 kts 243°
2026-05-06 08:26 25.28026 55.25843 3305 ft 218 kts 243°
2026-05-06 08:26 25.27340 55.24241 3357 ft 240 kts 243°
2026-05-06 08:27 25.26619 55.22543 3673 ft 248 kts 243°
2026-05-06 08:27 25.25872 55.20794 4072 ft 254 kts 243°
2026-05-06 08:27 25.25106 55.19019 4504 ft 259 kts 243°
2026-05-06 08:27 25.24189 55.17309 4827 ft 264 kts 227°
2026-05-06 08:28 25.22895 55.15803 5062 ft 274 kts 224°
2026-05-06 08:28 25.21537 55.14282 5499 ft 283 kts 224°
2026-05-06 08:28 25.20131 55.12722 5973 ft 290 kts 225°
2026-05-06 08:28 25.18719 55.11115 6497 ft 293 kts 225°
2026-05-06 08:29 25.17304 55.09480 7034 ft 297 kts 224°
2026-05-06 08:29 25.15855 55.07829 7600 ft 298 kts 224°
2026-05-06 08:29 25.14424 55.06199 8348 ft 294 kts 225°
2026-05-06 08:29 25.13003 55.04580 8941 ft 295 kts 225°
2026-05-06 08:30 25.11558 55.02935 9400 ft 301 kts 225°
2026-05-06 08:30 25.10115 55.01292 9907 ft 304 kts 225°
2026-05-06 08:30 25.08620 54.99634 10366 ft 304 kts 218°
2026-05-06 08:30 25.06759 54.98568 10748 ft 303 kts 193°
2026-05-06 08:31 25.04690 54.98039 11208 ft 307 kts 191°
2026-05-06 08:31 25.02594 54.97549 11773 ft 309 kts 191°
2026-05-06 08:31 25.00487 54.97067 12371 ft 310 kts 191°
2026-05-06 08:31 24.98371 54.96582 12961 ft 312 kts 191°
2026-05-06 08:32 24.96240 54.96091 13518 ft 315 kts 191°
2026-05-06 08:32 24.94082 54.95591 14035 ft 318 kts 191°
2026-05-06 08:32 24.91911 54.95086 14567 ft 320 kts 191°
2026-05-06 08:32 24.89727 54.94577 15114 ft 322 kts 191°
2026-05-06 08:33 24.87532 54.94030 15641 ft 325 kts 195°
2026-05-06 08:33 24.85395 54.93212 15819 ft 330 kts 202°
2026-05-06 08:33 24.83269 54.92078 15923 ft 348 kts 208°
2026-05-06 08:33 24.81103 54.90758 16056 ft 365 kts 209°
2026-05-06 08:34 24.78834 54.89348 16196 ft 383 kts 209°
2026-05-06 08:34 24.73975 54.86386 16522 ft 413 kts 208°
2026-05-06 08:34 24.71420 54.84859 16883 ft 421 kts 208°
2026-05-06 08:35 24.68827 54.83316 17380 ft 426 kts 208°
2026-05-06 08:35 24.66242 54.81720 17959 ft 428 kts 210°
2026-05-06 08:35 24.63661 54.80062 18479 ft 430 kts 210°
2026-05-06 08:35 24.61082 54.78392 18977 ft 432 kts 210°
2026-05-06 08:36 24.58475 54.76711 19479 ft 434 kts 210°
2026-05-06 08:36 24.56746 54.75605 19796 ft 436 kts 210°
2026-05-06 08:36 24.53254 54.73379 20383 ft 440 kts 211°
2026-05-06 08:36 24.50610 54.71671 20860 ft 442 kts 211°
2026-05-06 08:37 24.47965 54.69944 21320 ft 444 kts 212°
2026-05-06 08:37 24.46171 54.68773 21633 ft 446 kts 211°